{"data":{"norad_id":56557,"epoch":"2026-05-25T01:44:12.054336Z","epoch_age_seconds":79084,"freshness":"FRESH","line1":"1 56557U 23065BG  26145.07236174  .00000506  00000+0  27905-4 0  9999","line2":"2 56557  43.0042 152.2274 0001434 283.6504  76.4188 15.27577289168154","mean_motion":15.27577289,"eccentricity":0.0001434,"inclination_deg":43.0042,"raan_deg":152.2274,"arg_perigee_deg":283.6504,"mean_anomaly_deg":76.4188,"bstar":2.7905e-5,"rev_number":16815,"period_min":94.26691600938,"perigee_km":482.07331851068,"apogee_km":484.04110901119,"semimajor_km":6861.1942137609,"source":"CELESTRAK","updated_at":"2026-05-25T13:38:18.118441Z"}}